Location: Mountain View
(37.3861°N, 122.0839°W)
Time: 22:28:47
(UTC-07:00)

Tiangong 2 - Visible Passes

Search period start: 18 August 2018 00:00
Search period end: 28 August 2018 00:00
Orbit: 384 x 395 km, 42.8° (Epoch: 18 August)

Date Brightness Start Highest point End Pass type
(mag) Time Alt. Az. Time Alt. Az. Time Alt. Az.
18 Aug 1.0 05:06:46 38° WSW 05:07:50 81° NNW 05:11:03 10° ENE visible
19 Aug 3.2 04:11:34 26° E 04:11:34 26° E 04:13:09 10° ENE visible
19 Aug 2.3 05:43:58 10° W 05:46:58 36° N 05:49:59 10° ENE visible
20 Aug 1.6 04:48:39 46° NW 04:48:59 49° NNW 04:52:07 10° ENE visible
21 Aug 4.1 03:53:24 17° ENE 03:53:24 17° ENE 03:54:15 10° ENE visible
21 Aug 2.6 05:25:43 13° WNW 05:28:12 30° N 05:31:06 10° ENE visible
22 Aug 2.5 04:30:29 34° N 04:30:29 34° N 04:33:10 10° ENE visible
23 Aug 4.7 03:35:16 10° ENE 03:35:16 10° ENE 03:35:16 10° ENE visible
23 Aug 2.8 05:07:35 17° NW 05:09:26 29° N 05:12:18 10° ENE visible
24 Aug 3.4 04:12:25 24° NNE 04:12:25 24° NNE 04:14:15 10° ENE visible
24 Aug 2.3 05:45:37 10° WNW 05:48:41 39° NNE 05:51:43 10° E visible
25 Aug 2.7 04:49:40 26° NNW 04:50:38 32° N 04:53:34 10° ENE visible
26 Aug 4.3 03:54:41 15° ENE 03:54:41 15° ENE 03:55:25 10° ENE visible
26 Aug 1.6 05:27:01 13° WNW 05:29:46 59° NNE 05:32:56 10° E visible
27 Aug 2.5 04:32:12 39° NE 04:32:12 39° NE 04:34:49 10° E visible
27 Aug 1.5 06:05:35 10° WNW 06:08:39 43° SSW 06:11:42 10° SE visible
